Roosevelt Roads, PR

5:09 AM AST on July 21, 2017 (GMT -0400)
Roosevelt Roads Ns

Weather History for TJNR - October, 2013

Change the Weather History Date:

Thursday, October 3, 2013

  Actual Average Record
Temperature  
Mean Temperature 86 °F -  
Max Temperature 90 °F 85 °F 91 °F (2015)
Min Temperature 81 °F 74 °F 73 °F (1996)
Cooling Degree Days 20    
Growing Degree Days 36 (Base 50)    
Moisture  
Dew Point 77 °F    
Average Humidity 77    
Maximum Humidity 88    
Minimum Humidity 65    
Precipitation  
Precipitation 0.00 in - - ()
Sea Level Pressure  
Sea Level Pressure 29.96 in    
Wind  
Wind Speed 7 mph (East)    
Max Wind Speed 14 mph    
Max Gust Speed 20 mph    
Visibility 10 miles    
Events      
Averages and records for this station are not official NWS values.
T = Trace of Precipitation, MM = Missing Value Source: NWS Daily Summary

Daily Weather History Graph

Daily Weather History Graph

Search for Another Location

Airport or City:

Trip Planner

Search our weather history database for the weather conditions in past years. The results will help you decide how hot, cold, wet, or windy it might be!

Date:

Astronomy

Oct. 03, 2013 Rise Set
Actual Time 6:13 AM AST 6:09 PM AST
Civil Twilight 5:51 AM AST 6:31 PM AST
Nautical Twilight 5:26 AM AST 6:56 PM AST
Astronomical Twilight 5:01 AM AST 7:21 PM AST
Moon 4:51 AM AST (10/3) 5:11 PM AST (10/3)
Length of Visible Light 12h 39m
Length of Day
11h 55m
Waning Crescent, 2% of the Moon is Illuminated
Oct 3
Waning Crescent
Oct 4
New
Oct 11
First Quarter
Oct 18
Full
Oct 26
Last Quarter

Hourly Weather History & Observations

Time (AST) Temp. Heat Index Dew Point Humidity Pressure Visibility Wind Dir Wind Speed Gust Speed Precip Events Conditions
12:53 AM 82.9 °F 91.8 °F 77.0 °F 82% 29.96 in 10.0 mi East 6.9 mph - N/A   Partly Cloudy
1:53 AM 82.9 °F 91.8 °F 77.0 °F 82% 29.95 in 10.0 mi East 6.9 mph - N/A   Partly Cloudy
2:53 AM 82.9 °F 90.8 °F 75.9 °F 79% 29.94 in 10.0 mi East 6.9 mph - N/A   Clear
3:53 AM 82.9 °F 90.8 °F 75.9 °F 79% 29.93 in 10.0 mi East 5.8 mph - N/A   Scattered Clouds
4:04 AM 82.4 °F 90.9 °F 77.0 °F 84% 29.92 in 10.0 mi East 5.8 mph - N/A   Mostly Cloudy
4:13 AM 82.4 °F 90.9 °F 77.0 °F 84% 29.93 in 10.0 mi East 5.8 mph - N/A   Scattered Clouds
4:53 AM 82.9 °F 90.8 °F 75.9 °F 79% 29.94 in 10.0 mi East 6.9 mph - N/A   Partly Cloudy
5:30 AM 82.4 °F 90.9 °F 77.0 °F 84% 29.94 in 10.0 mi East 4.6 mph - N/A   Mostly Cloudy
5:39 AM 82.4 °F 89.5 °F 75.2 °F 79% 29.95 in 10.0 mi East 4.6 mph - N/A   Scattered Clouds
5:53 AM 82.9 °F 90.8 °F 75.9 °F 79% 29.95 in 10.0 mi East 5.8 mph - N/A   Scattered Clouds
6:53 AM 81.0 °F 87.3 °F 75.9 °F 85% 29.98 in 10.0 mi NNE 11.5 mph - N/A   Mostly Cloudy
7:53 AM 86.0 °F 96.9 °F 77.0 °F 74% 29.99 in 10.0 mi East 6.9 mph - N/A   Partly Cloudy
8:53 AM 88.0 °F 101.3 °F 78.1 °F 72% 30.00 in 10.0 mi East 8.1 mph - N/A   Partly Cloudy
9:53 AM 88.0 °F 98.5 °F 75.9 °F 67% 30.02 in 10.0 mi East 8.1 mph - 0.00 in   Clear
10:53 AM 86.0 °F 96.9 °F 77.0 °F 74% 30.02 in 10.0 mi East 8.1 mph 19.6 mph N/A   Mostly Cloudy
11:07 AM 87.8 °F 102.5 °F 78.8 °F 75% 30.02 in 10.0 mi ESE 13.8 mph - N/A   Mostly Cloudy
11:53 AM 90.0 °F 102.5 °F 77.0 °F 65% 30.00 in 10.0 mi East 9.2 mph - N/A   Mostly Cloudy
12:53 PM 88.0 °F 98.5 °F 75.9 °F 67% 29.98 in 10.0 mi East 12.7 mph - N/A   Partly Cloudy
1:53 PM 89.1 °F 100.2 °F 75.9 °F 65% 29.95 in 10.0 mi East 8.1 mph - N/A   Clear
2:53 PM 88.0 °F 100.2 °F 77.0 °F 70% 29.94 in 10.0 mi ENE 9.2 mph - N/A   Clear
3:53 PM 87.1 °F 97.3 °F 75.9 °F 69% 29.93 in 10.0 mi ENE 6.9 mph - N/A   Clear
4:53 PM 84.9 °F 94.1 °F 75.9 °F 74% 29.93 in 10.0 mi ENE 5.8 mph - N/A   Clear
5:53 PM 84.0 °F 92.6 °F 75.9 °F 76% 29.93 in 10.0 mi East 5.8 mph - N/A   Partly Cloudy
6:53 PM 82.9 °F 91.8 °F 77.0 °F 82% 29.95 in 10.0 mi ENE 3.5 mph - N/A   Partly Cloudy
7:53 PM 84.0 °F 93.7 °F 77.0 °F 79% 29.96 in 10.0 mi East 5.8 mph - N/A   Scattered Clouds
8:53 PM 82.0 °F 90.2 °F 77.0 °F 85% 29.98 in 10.0 mi East 3.5 mph - 0.00 in   Clear
9:53 PM 82.0 °F 91.0 °F 78.1 °F 88% 29.99 in 10.0 mi ENE 6.9 mph - N/A   Partly Cloudy
10:53 PM 82.0 °F 90.2 °F 77.0 °F 85% 29.98 in 10.0 mi East 4.6 mph - N/A   Partly Cloudy